星链-6158 (STARLINK-6158 )

导读 | 星芒AI

STARLINK-6158 是 SpaceX Starlink 卫星互联网项目中的一颗低轨卫星,属于第61批发射任务中部署的多颗卫星之一。该卫星运行在约550公里高的近地轨道,旨在为全球用户提供高速、低延迟的宽带互联网服务。作为Starlink星座的一部分,它通过与其他卫星协同工作,实现全球范围的网络覆盖,特别是在偏远和网络基础设施薄弱的地区。该系统支持实时通信,有助于提升全球通信的可及性与稳定性。

基本信息
目录编号:
56375
目录名称:
STARLINK-6158
国际标识:
2023-061B
轨道中心:
EARTH
卫星名称:
星链-6158
卫星全名:
星链-6158 (STARLINK-6158 )
卫星状态:
在轨 (已飞行962 天)
发射日期:
2023-05-04 UTC
国别 :
美国 (US)
星等 :
--
轨道信息
数据来源 国际轨道数据 AOE轨道数据
星历时间 2025-12-21T10:48:24+0800
14小时前
查看轨道信息
2025-12-20T21:00:00+0800
1天前
查看轨道信息
半长轴 6937.207km 6937.231km
偏心率 0.0001155 0.000128
轨道倾角 43.004° 43.002°
近地点辐角 273.543° 265.634°
升交点赤经 264.552° 267.679°
平近点角 86.528° 219.077°
近地点 558.268km 558.206km
远地点 559.872km 559.982km
周期 95.838分钟 95.838分钟
每日圈数 15.025393 15.025315
详细信息
固有亮度:
5
最大亮度:
2.5
卫星平台:
Starlink v1.5
覆盖范围:
全球
运营商:
太空探索技术公司
运营商所在国:
美国
制造商(研发单位):
太空探索技术公司
制造商所在国:
美国
使用方式:
暂无
卫星简介
星链(Starlink)计划是由太空探索技术公司(SpaceX)提出的一个巨型低轨卫星互联网星座项目,计划在2019年至2024年间在太空搭建由约1.2万颗卫星组成的“星链”网络,其中1584颗将部署在地球上空550千米处的近地轨道,并从2020年开始工作。该卫星仍在工作。
2D轨道图
3D轨道图
轨道高度分析图
轨道倾角分析图
轨道综合分析图
查看轨道综合分析图